This demonstration page uses our WeatherBlox Daily Observations layout. Learn more.

38.88101, -77.10428

Hourly Observations for February 9, 2018

Temp ( °F °C ) Dew Point ( °F °C ) Humidity (%) Winds ( mph kmh ) Pressure ( in mb ) Visibility ( mi km ) Precip ( " mm )
12:52 am 00:52 Mostly Cloudy 30 -1.1 19 -7.2 64 64 Calm 30.52 1034 10 16.0934 0 0
1:52 am 01:52 Cloudy 29 -1.7 21 -6.1 72 72 ENE 5 7 30.51 1033 10 16.0934 0 0
2:52 am 02:52 Partly Cloudy 30 -1.1 22 -5.6 72 72 Calm 30.51 1033 10 16.0934 0 0
3:52 am 03:52 Partly Cloudy 30 -1.1 21 -6.1 69 69 Calm 30.51 1033 10 16.0934 0 0
4:52 am 04:52 Clear 28 -2.2 22 -5.6 78 78 ENE 5 7 30.51 1033 10 16.0934 0 0
5:52 am 05:52 Mostly Cloudy 29 -1.7 22 -5.6 75 75 Calm 30.52 1034 10 16.0934 0 0
6:52 am 06:52 Cloudy 28 -2.2 22 -5.6 78 78 NNE 3 6 30.55 1035 10 16.0934 0 0
7:52 am 07:52 Cloudy 31 -0.6 24 -4.4 76 76 SSE 9 15 30.56 1035 10 16.0934 0 0
8:52 am 08:52 Cloudy 33 0.6 24 -4.4 70 70 SSE 5 7 30.57 1035 10 16.0934 0 0
9:48 am 09:48 Cloudy 36 2 21 -6 56 56 SSE 8 13 30.56 1035 10 16.0934 0 0
9:52 am 09:52 Cloudy 36 2.2 21 -6.1 55 55 SSE 7 11 30.56 1035 10 16.0934 0 0
10:52 am 10:52 Cloudy 39 3.9 26 -3.3 60 60 S 7 11 30.56 1035 10 16.0934 0 0
11:52 am 11:52 Cloudy 41 5 28 -2.2 60 60 SSW 8 13 30.54 1034 10 16.0934 0 0
12:52 pm 12:52 Cloudy 43 6.1 29 -1.7 58 58 S 7 11 30.49 1033 10 16.0934 0 0
1:52 pm 13:52 Cloudy 45 7.2 30 -1.1 56 56 S 8 13 30.45 1031 10 16.0934 0 0
2:23 pm 14:23 Mostly Cloudy 45 7.2 31 -0.6 58 58 S 9 15 30.45 1031 10 16.0934 0 0
2:52 pm 14:52 Mostly Cloudy 45 7.2 31 -0.6 58 58 S 10 17 30.42 1030 10 16.0934 0 0
3:52 pm 15:52 Cloudy 46 7.8 31 -0.6 56 56 SSE 10 17 30.4 1030 10 16.0934 0 0
4:52 pm 16:52 Cloudy 44 6.7 32 0 63 63 S 6 9 30.39 1029 10 16.0934 0 0
5:52 pm 17:52 Cloudy 43 6.1 32 0 65 65 SSE 8 13 30.38 1029 10 16.0934 0 0
6:52 pm 18:52 Cloudy 43 6.1 32 0 65 65 S 10 17 30.37 1029 10 16.0934 0 0
7:52 pm 19:52 Mostly Cloudy 40 4.4 32 0 73 73 S 8 13 30.38 1029 10 16.0934 0 0
8:52 pm 20:52 Mostly Cloudy 40 4.4 33 0.6 77 77 S 9 15 30.38 1029 10 16.0934 0 0
9:52 pm 21:52 Cloudy 40 4.4 33 0.6 77 77 SSW 6 9 30.38 1029 10 16.0934 0 0
10:52 pm 22:52 Cloudy 40 4.4 33 0.6 77 77 S 6 9 30.37 1028 10 16.0934 0 0
11:52 pm 23:52 Cloudy 40 4.4 34 1.1 79 79 S 7 11 30.35 1028 10 16.0934 0 0

Powered by AerisWeather